Location: Berlin
(52.5171°N, 13.3759°E)
Time: 15:42:03
(UTC+02:00)

ISS - Pass Details

Date: 08 January 2018
Orbit: 401 x 409 km, 51.6° (Epoch: 19 August)

Event Time Altitude Azimuth Distance (km) Brightness Sun altitude
Exits shadow 05:21:50 34° 100° (E) 724 -2.0 -25.2°
Drops below altitude 10° 05:23:53 10° 96° (E) 1,513 0.1 -24.9°
Enters shadow 06:18:40 -71° 286° (WNW) 12,486 3.7 -16.7°
